This is the latest recevied weather packets stored in our database for station/object K6MBY. If no packets are shown the sender has not sent any weather packets the latest 10 day(s).
| Time | Temp. | Humidity | Pressure | Rain* | Wind** | Luminosity | Snow |
|---|---|---|---|---|---|---|---|
| 1777692165 | 11.67° C | 86% | 1019 hPa | 0 mm | - | 6 W/m² | - |
| 1777691864 | 11.11° C | 87% | 1019 hPa | 0 mm | - | 10 W/m² | - |
| 1777691561 | 11.67° C | 87% | 1018.8 hPa | 0 mm | - | 15 W/m² | - |
| 1777691260 | 11.67° C | 87% | 1018.7 hPa | 0 mm | - | 21 W/m² | - |
| 1777690957 | 11.67° C | 87% | 1018.8 hPa | 0 mm | - | 26 W/m² | - |
| 1777690654 | 11.67° C | 87% | 1018.7 hPa | 0 mm | - | 32 W/m² | - |
| 1777690352 | 11.67° C | 86% | 1018.9 hPa | 0 mm | - | 37 W/m² | - |
| 1777690050 | 11.67° C | 86% | 1018.5 hPa | 0 mm | - | 39 W/m² | - |
| 1777689747 | 11.67° C | 86% | 1018.6 hPa | 0 mm | - | 40 W/m² | - |
| 1777689445 | 11.67° C | 86% | 1018.7 hPa | 0 mm | - | 44 W/m² | - |
| 1777689142 | 11.67° C | 86% | 1018.6 hPa | 0 mm | - | 48 W/m² | - |
| 1777688840 | 12.22° C | 85% | 1018.7 hPa | 0 mm | - | 60 W/m² | - |
| 1777688536 | 11.67° C | 85% | 1018.7 hPa | 0 mm | - | 58 W/m² | - |
| 1777688234 | 12.22° C | 85% | 1018.7 hPa | 0 mm | - | 75 W/m² | - |
| 1777687931 | 12.78° C | 83% | 1018.8 hPa | 0 mm | - | 96 W/m² | - |
| 1777687628 | 12.22° C | 84% | 1018.7 hPa | 0 mm | - | 103 W/m² | - |
| 1777687325 | 12.22° C | 85% | 1018.7 hPa | 0 mm | - | 106 W/m² | - |
| 1777687023 | 12.22° C | 85% | 1018.7 hPa | 0 mm | - | 112 W/m² | - |
| 1777686718 | 12.22° C | 86% | 1018.7 hPa | 0 mm | - | 109 W/m² | - |
| 1777686416 | 12.22° C | 86% | 1018.7 hPa | 0 mm | - | 138 W/m² | - |
| 1777686113 | 11.67° C | 88% | 1018.8 hPa | 0 mm | - | 152 W/m² | - |
| 1777685809 | 11.67° C | 90% | 1018.9 hPa | 0 mm | - | 126 W/m² | - |
| 1777685504 | 11.67° C | 89% | 1018.8 hPa | 0 mm | - | 113 W/m² | - |
| 1777685202 | 11.67° C | 89% | 1019 hPa | 0 mm | - | 128 W/m² | - |
| 1777684900 | 11.11° C | 90% | 1018.9 hPa | 0 mm | - | 182 W/m² | - |
* Rain latest hour (hover to see other rain measurements)
** Current wind speed in m/s (hover to see current wind gust speed)